STARLINK-1694

decayed
NORAD ID: 46544 Int'l Des: 2020-070 Owner: SPXS Country: US Constellation: starlink
LEOCIRCULAR
グループ

STARLINK-1694について

説明を読み込み中...

高度履歴

Altitude vs Time

uPlot chart will show altitude changes over time

軌道要素

1 46544U 20070N 25128.18855969 .25216979 12702-4 33642-3 0 9999
2 46544 53.0259 31.5728 0005363 355.1696 129.2360 16.48982657254535
Epoch: May 8, 2025 • Age: 3138 hours

現在のステータス

Position data unavailable
打ち上げ日 Oct 6, 2020
運用期間 4.9 years
落下予定日 May 8, 2025
タイプ internet

技術仕様

分類 Payload
質量 260.00 kg
乾燥質量 248.00 kg
総質量 260.00 kg
長さ 0.20 m
直径 2.80 m
スパン 9.00 m
形状 Box + pan
製造者 SPXS
バスタイプ Starlink
フェーズステータス Reentered
所有者/国 SPXS/US

大規模コンステレーション

Loading constellations...